Home   Weather   Zielona Góra   Past weeks

Flag for Poland Past Weather in Zielona Góra, Poland — Yesterday and Last 2 Weeks

Now
60 °F

Low clouds.


Feels Like: 60 °F
Forecast: 54 / 68 °F
Wind: 3 mph from West

Location: Zielona Gora

Current Time: Aug 19, 2017 at 7:40:37 am

Latest Report: Aug 19, 2017 at 7:00 am


Visibility: 9 mi

Pressure: 29.94 "Hg

Humidity: 97%

Dew Point: 59 °F

Location of Zielona GóraLocation

Past Weather in Zielona Góra — Graph

°F

Zielona Góra Temperature Yesterday

Maximum temperature yesterday: 78 °F (at 2:00 pm)
Minimum temperature yesterday: 63 °F (at 6:00 am)
Average temperature yesterday: 71 °F

High & Low Weather Summary for the Past Weeks

 TemperatureHumidityPressure
High79 °F (Aug 4, 5:00 pm)100% (Aug 11, 11:00 pm)30.26 "Hg (Aug 11, 11:00 pm)
Low55 °F (Aug 13, 3:00 am)40% (Aug 7, 4:00 pm)29.76 "Hg (Aug 18, 11:00 pm)
Average67 °F74%30.04 "Hg
* Reported Aug 4 6:00 am — Aug 19 6:00 am, Zielona Góra. Weather by CustomWeather, © 2017

Note: Actual official high and low records may vary slightly from our data, if they occured in-between our weather recording intervals... More about our weather records

Advertising

Zielona Góra Weather History for the Previous 24 Hours

Scroll right to see more
 ConditionsComfort  
Time TempWeatherWind HumidityBarometerVisibility
6:00 am
Sat, Aug 19
61 °FLow clouds.5 mph98%29.93 "Hg7 mi
5:00 am62 °FLow clouds.5 mph96%29.90 "Hg25 mi
4:00 am65 °FLow clouds.2 mph97%29.90 "Hg9 mi
3:00 am65 °FSprinkles. Low clouds.3 mph98%29.87 "Hg6 mi
2:00 am65 °FThunderstorms. Low clouds.2 mph99%29.86 "Hg3 mi
1:00 am66 °FThundershowers. Overcast.2 mph97%29.84 "Hg2 mi
12:00 am69 °FSprinkles. Overcast.3 mph86%29.83 "Hg22 mi
11:00 pm
Fri, Aug 18
73 °FOvercast.5 mph73%29.76 "Hg19 mi
10:00 pm74 °FOvercast.5 mph72%29.77 "Hg25 mi
9:00 pm75 °FOvercast.5 mph69%29.79 "Hg31 mi
8:00 pm74 °FScattered clouds.2 mph72%29.82 "Hg28 mi
7:00 pm76 °FThunderstorms. Scattered clouds.2 mph68%29.85 "Hg19 mi
6:00 pm75 °FThundershowers. Overcast.2 mph72%29.88 "Hg16 mi
5:00 pm76 °FOvercast.2 mph69%29.91 "Hg16 mi
4:00 pm78 °FOvercast.3 mph64%29.92 "Hg25 mi
3:00 pm78 °FOvercast.3 mph62%29.94 "Hg25 mi
2:00 pm78 °FOvercast.3 mph61%29.96 "Hg19 mi
1:00 pm77 °FPartly sunny.3 mph68%29.98 "Hg19 mi
12:00 pm76 °FPartly sunny.3 mph69%29.99 "Hg16 mi
11:00 am73 °FOvercast.3 mph72%30.01 "Hg16 mi
10:00 am71 °FPartly sunny.2 mph81%30.01 "Hg12 mi
9:00 am68 °FPartly sunny.2 mph92%30.01 "Hg6 mi
8:00 am65 °FFog.1 mph97%30.01 "Hg3 mi
7:00 am63 °FOvercast.1 mph98%30.01 "Hg7 mi
Weather by CustomWeather, © 2017

See weather overviewHow to use our weather pages